Погода в Рязани

Хотите узнать прогноз погоды в Рязани? Тогда Вам сюда: Погода в Рязани

Поиск расширенной информации на нашем сайте:

Полезная информация:

Новости сайта



02.01.2020
Опубликован Долгосрочный прогноз погоды по городам России и ближнего зарубежья на январь 2020 года.
Карты: Прогноз на январь и февраль 2020 года, Сравнение прогнозируемой аномалии приземной температуры воздуха на январь 2020 года по разным моделям.




Погода в Рязани - сегодня

Время (UTC), дата Ветер
(°,м/с) 
Видим.   Явления Облачность Т
(°С)
Тd
(°С)
f(%) Тe
(°С)
Pmin
(гПа)
dP
(гПа)
Po
(мм)
O2
(г/м3)
Тmin Tmax R s Состояние
почвы
15 02.07.20 220 (ЮЗ) 20000 м    8/0 верхняя 
[Cs]
+26.2 +14 47 +33  1012  -0.4  746  271    +27.1       
18 02.07.20 160 (Ю) 20000 м    6/0 верхняя 
[Cs]
+19.9 +17.5 86 +35  1012.4  0.1  746  276           
21 02.07.20 170 (Ю) 20000 м    10/0 верхняя 
[Cs]
+20 +16.5 80 +32  1012.7  0.2  746  276           
00 03.07.20 280 (З) 20000 м    10/0 верхняя 
[Cs]
+19.4 +17.2 87 +34  1012.7  746  277           
03 03.07.20 200 (Ю) 20000 м    9/0 средняя, верхняя 
[Ac trans|Ci fib]
+20.4 +17.4 83 +34  1012.7  0.1  746  276  +18.6        влажная 
06 03.07.20 240 (ЮЗ) 20000 м    8/0 верхняя 
[Cs]
+24.6 +18.5 69 +40  1013.3  0.9  747  272           
09 03.07.20 250 (З) 20000 м    8/1 600 м верхняя 
[Cu hum|Ci fib]
+27.5 +17.7 55 +41  1014  0.8  747  270           
12 03.07.20 220 (ЮЗ) 20000 м    8/4 600 м средняя, верхняя 
[Cu hum|Ac trans|Ci fib]
+28.6 +16.6 48 +40  1013.5  -0.4  747  269           
15 03.07.20 220 (ЮЗ) 20000 м    4/1 1000 м верхняя 
[Cu hum|Ci fib]
+28.1 +16.9 51 +40  1013.1  -0.5  746  269    +28.8       
18 03.07.20 160 (Ю) 20000 м    10/4 300 м средняя 
[Sc diur, vesp|Ac trans]
+23.6 +19.3 77 +41  1013.6  0.3  747  272           
21 03.07.20 тихо () {11}  20000 м    10/0 верхняя 
[Cs]
+19 +17.7 92 +33  1014.9  747  278           
00 04.07.20 150 (ЮВ) 10 км    3/0 верхняя 
[Ci fib]
+17.9 +17.2 96 +32  1014.3  -0.7  747  279           
03 04.07.20 150 (ЮВ) 20000 м    1/0 верхняя 
[Ci fib]
+21.2 +17.9 81 +35  1013.5  -0.5  747  275  +17.1        сухая 
06 04.07.20 230 (ЮЗ) 20000 м    1/0 верхняя 
[Ci fib]
+26.3 +19 64 +43  1012.9  -0.3  746  270           
09 04.07.20 190 (Ю) 20000 м    6/4 600 м верхняя 
[Cu med, cong|Ci fib]
+29.9 +15.5 42 +40  1012.4  -0.3  746  268           
12 04.07.20 210 (ЮЗ) 20000 м    8/8 600 м верхняя 
[Cu med, cong|Ci fib]
+30.3 +15.4 41 +40  1011.8  -0.6  746  267           
15 04.07.20 360 (С) 4{18}  2000 м  гроза, ливневой дождь  10/8 300 м кучево-дожд., средняя, верхняя 
[Cb cap|Ac cuf|Ci ing]
+18.5 +18.2 98 +34  1012.3  0.1  746  277    +30.7  27     
18 04.07.20 тихо ()   4000 м  дымка{гроза, ливн. осадки}  9/3 600 м средняя, верхняя 
[Sc diur, vesp|Ac cuf|Ci ing]
+19.3 +19 98 +36  1012.6  0.3  746  276           
21 04.07.20 220 (ЮЗ) 4000 м  гроза без осадков  10/8 300 м кучево-дожд., средняя, верхняя 
[Cb cap|Ac cuf|Ci ing]
+18.9 +18.6 98 +35  1014.1  1.5  747  277           
00 05.07.20 тихо ()   2000 м  дымка{гроза, ливн. осадки}  10/3 300 м средняя, верхняя 
[Sc diur, vesp|Ac As|Ci ing]
+17.8 +17.5 98 +31  1011.8  -2.4  745  278           
03 05.07.20 тихо ()   4000 м  дымка  10/3 300 м кучево-дожд., средняя, верхняя 
[Cb cap|Ac cuf|Cs]
+18.5 +18.2 98 +33  1012.4  0.6  746  277  +17.3    12    мокрая 
06 05.07.20 тихо ()   4000 м  дымка  9/3 600 м средняя, верхняя 
[Sc diur, vesp|Ac lent|Ci fib]
+21.1 +20.8 98 +42  1012.2  746  274           
09 05.07.20 220 (ЮЗ) 20000 м    9/9 600 м кучево-дожд. 
[Cb calv]
+24.2 +20.9 82 +45  1011.7  -0.3  745  271           
12 05.07.20 180 (Ю) 20000 м    9/8 600 м средняя 
[Cu med, cong|Ac As]
+26.5 +20.3 69 +46  1010.8  -0.7  745  269           
15 05.07.20 тихо ()   20000 м    10/6 600 м средняя 
[Sc diur, vesp|Ac und]
+24.9 +20.3 76 +45  1010.3  -0.6  744  270    +26.8       
Время (UTC), дата Ветер
(°,м/с) 
Видим.   Явления Облачность Т
(°С)
Тd
(°С)
f(%) Тe
(°С)
Pmin
(гПа)
dP
(гПа)
Po
(мм)
O2
(г/м3)
Тmin Tmax R s Состояние
почвы

Для получения пояснительной информации подведите курсор к названию столбца.

ПОГОДА в Рязани - архив

Всё, что Вы хотите узнать о погоде в Рязани - удобно и подробно!

Выберите нужную дату (начиная с 1 января 2019* года) и нажмите кнопку "Найти".
Будут отображены архивные сводки погоды по пункту Рязань, начиная с указанной даты.


Отображать данные в формате CSV (для использования в таблицах Excel)


Внимание! Наш архив погоды предназначен исключительно для личного некоммерческого использования в познавательных целях. Если Вам необходимы официальные справки о состоянии погоды (для производственных, юридических, коммерческих и т.п. целей), обращайтесь в органы Росгидромета.

*Примечание: данная дата относится к архиву по метеостанциям СССР (Россия, СНГ, Балтия).
Архив по метеостанциям Зарубежной Европы и Азии (кроме Китая) хранится 10 дней, по другим регионам земного шара (Китай, Африка, Америка, Австралия, Океания) - 1 день.

Рязань - район местоположения метеостанции


Название, широта, долгота, высота метеостанции:
Рязань 54.6°ш. 39.7°д. 158 м над ур. моря [Российская Федерация]

Дополнительная информация

В oтличие oт бoльшинства пoгoдных сайтoв мы публикуем пoдрoбную метеoинфoрмацию в детальнoм прoфессиoнальнoм фoрмате.

Характеристики температуры и влажнoсти вoздуха измеряются на высoте 2 м в тени вдали oт зданий и деревьев.
Скoрoсть ветра измеряется на высoте 10 м (на урoвне рoста челoвека скoрoсть ветра ниже в 1.5-2 раза). Если метеoстанция нахoдится в гoрoде или в лесу, тo скoрoсть ветра занижена на 2-4 м/с пo сравнению с oткрытым местoм. Скoрoсть ветра над акватoриями крупных рек и oзёр, а также на вершинах хoлмoв на 2-5 м/с выше, чем в oбычных услoвиях.
Атмoсфернoе давление в разных тoчках местнoсти мoжет значительнo oтличаться oт давления на метеoстанции, в зависимoсти oт услoвий рельефа (при пoдъёме на 10 м давление пoнижается примернo на 1 мм рт.ст.).